Home   Weather   Washington County   Past weeks
Flag for USA

Past Weather in Washington County, Kentucky, USA — Yesterday and Last 2 Weeks

Now
81 °F

Broken clouds.


Feels Like: 81 °F
Forecast: 82 / 60 °F
Wind: 13 mph from Southwest

Location: Somerset Weather Reporting Station

Current Time: Jun 15, 2019 at 5:02:07 pm

Latest Report: Jun 15, 2019 at 4:15 pm


Visibility: 10 mi

Pressure: 30.03 "Hg

Humidity: 48%

Dew Point: 59 °F

Location of Washington CountyLocation

Past Weather in Washington County — Graph

°F

Washington County Temperature Yesterday

Maximum temperature yesterday: 73 °F (at 3:35 pm)
Minimum temperature yesterday: 43 °F (at 6:35 am)
Average temperature yesterday: 60 °F

High & Low Weather Summary for the Past Weeks

 TemperatureHumidityPressure
High86 °F (Jun 5, 5:35 pm)100% (May 31, 10:55 pm)30.27 "Hg (May 31, 10:55 pm)
Low43 °F (Jun 14, 6:35 am)27% (Jun 3, 12:55 pm)29.73 "Hg (Jun 7, 4:35 pm)
Average67 °F75%29.99 "Hg
* Reported May 31 3:15 pm — Jun 15 3:55 pm, Washington County. Weather by CustomWeather, © 2019

Note: Actual official high and low records may vary slightly from our data, if they occured in-between our weather recording intervals... More about our weather records

Advertising

Washington County Weather History for the Previous 24 Hours

Scroll right to see more
 ConditionsComfort  
Time TempWeatherWind HumidityBarometerVisibility
3:55 pm
Sat, Jun 15
81 °FSunny.10 mph48%30.04 "Hg10 mi
3:35 pm81 °FSunny.14 mph48%30.05 "Hg10 mi
2:55 pm81 °FScattered clouds.16 mph48%30.06 "Hg10 mi
2:35 pm81 °FBroken clouds.10 mph48%30.07 "Hg10 mi
2:15 pm81 °FPartly sunny.12 mph48%30.07 "Hg10 mi
1:55 pm79 °FPartly sunny.13 mph48%30.08 "Hg10 mi
1:35 pm79 °FPartly sunny.13 mph48%30.09 "Hg10 mi
1:15 pm79 °FScattered clouds.12 mph45%30.09 "Hg10 mi
12:55 pm79 °FPartly sunny.14 mph45%30.10 "Hg10 mi
12:35 pm77 °FPartly sunny.9 mph47%30.09 "Hg10 mi
12:15 pm77 °FScattered clouds.9 mph47%30.09 "Hg10 mi
11:55 am77 °FSunny.7 mph47%30.09 "Hg10 mi
11:35 am75 °FSunny.12 mph47%30.10 "Hg10 mi
11:15 am73 °FSunny.7 mph50%30.10 "Hg10 mi
10:55 am73 °FSunny.10 mph50%30.10 "Hg10 mi
10:35 am72 °FSunny.10 mph50%30.11 "Hg10 mi
9:55 am70 °FSunny.10 mph53%30.12 "Hg10 mi
9:35 am68 °FSunny.6 mph56%30.13 "Hg10 mi
9:15 am68 °FSunny.7 mph56%30.13 "Hg10 mi
8:55 am66 °FSunny.7 mph60%30.13 "Hg10 mi
8:35 am64 °FSunny.6 mph60%30.13 "Hg10 mi
8:15 am64 °FSunny.6 mph60%30.13 "Hg10 mi
7:55 am63 °FSunny.6 mph64%30.13 "Hg10 mi
7:35 am63 °FSunny.5 mph64%30.13 "Hg10 mi
6:55 am63 °FSunny.3 mph59%30.13 "Hg10 mi
6:15 am61 °FSunny.3 mph68%30.12 "Hg10 mi
5:55 am61 °FClear.No wind68%30.12 "Hg10 mi
5:35 am61 °FClear.No wind68%30.12 "Hg10 mi
4:55 am61 °FClear.3 mph68%30.11 "Hg10 mi
4:35 am61 °FClear.3 mph68%30.11 "Hg10 mi
4:15 am61 °FClear.5 mph68%30.10 "Hg10 mi
3:55 am61 °FClear.No wind63%30.11 "Hg10 mi
3:35 am61 °FClear.3 mph63%30.10 "Hg10 mi
3:15 am63 °FClear.5 mph59%30.11 "Hg10 mi
2:55 am63 °FClear.5 mph59%30.11 "Hg10 mi
2:35 am63 °FClear.No wind59%30.11 "Hg10 mi
2:15 am61 °FClear.No wind63%30.11 "Hg10 mi
1:55 am61 °FClear.No wind68%30.11 "Hg10 mi
1:35 am61 °FClear.3 mph63%30.11 "Hg10 mi
1:15 am63 °FClear.3 mph64%30.12 "Hg10 mi
12:55 am61 °FClear.3 mph68%30.12 "Hg10 mi
12:35 am63 °FClear.3 mph64%30.13 "Hg10 mi
12:15 am61 °FClear.3 mph68%30.13 "Hg10 mi
11:55 pm
Fri, Jun 14
61 °FClear.No wind72%30.13 "Hg10 mi
11:35 pm63 °FClear.No wind68%30.13 "Hg10 mi
10:55 pm63 °FClear.No wind68%30.13 "Hg10 mi
10:35 pm63 °FClear.No wind68%30.13 "Hg10 mi
10:15 pm63 °FClear.No wind73%30.12 "Hg10 mi
9:55 pm61 °FClear.5 mph77%30.11 "Hg10 mi
9:35 pm63 °FClear.No wind73%30.12 "Hg10 mi
9:15 pm64 °FClear.No wind68%30.12 "Hg10 mi
8:55 pm66 °FSunny.No wind64%30.11 "Hg10 mi
8:15 pm68 °FSunny.No wind60%30.10 "Hg10 mi
7:55 pm70 °FSunny.No wind50%30.10 "Hg10 mi
7:35 pm72 °FSunny.No wind41%30.10 "Hg10 mi
7:15 pm72 °FSunny.3 mph41%30.11 "Hg10 mi
6:55 pm73 °FSunny.5 mph36%30.11 "Hg10 mi
6:35 pm73 °FSunny.No wind36%30.12 "Hg10 mi
6:15 pm73 °FSunny.5 mph36%30.12 "Hg10 mi
5:55 pm73 °FSunny.5 mph36%30.13 "Hg10 mi
5:35 pm73 °FSunny.3 mph33%30.13 "Hg10 mi
5:15 pm73 °FSunny.6 mph33%30.13 "Hg10 mi
Weather by CustomWeather, © 2019

See weather overview